Temperature
17 16 15 15 15 15 14 14 13 13 13 12 12 12 12 11 11 11 11 11 11 11 11 11 11 11 11 11 11 11 11 11 12 12 11 11 11 12 13 14 14 14 14
18 17 16 15 15 15 14 14 13 13 12 12 12 12 12 11 11 11 11 11 10 10 10 11 11 11 11 11 11 11 11 11 12 12 12 11 11 11 12 12 12 13 13
18 18 16 16 15 15 14 14 13 13 12 12 12 11 11 11 11 11 11 11 10 10 10 10 11 11 11 11 11 11 11 11 12 12 12 12 11 10 11 11 11 12 12
18 18 17 16 15 15 14 14 13 12 12 12 11 11 11 11 10 11 11 11 11 11 11 11 11 11 11 11 11 11 11 11 12 12 12 12 11 10 10 11 11 11 11
19 18 17 16 16 15 14 14 13 12 12 11 11 11 11 10 10 10 11 11 11 11 11 11 11 11 11 11 11 11 11 11 12 12 12 11 11 10 10 10 11 11 11
19 18 17 17 16 15 14 13 13 12 12 11 11 11 10 10 10 11 11 11 11 11 11 11 11 11 12 12 11 11 11 12 12 12 12 11 11 10 10 11 11 11 11
19 18 17 16 15 15 14 13 13 12 12 11 11 10 10 10 10 11 11 11 11 11 11 11 11 11 11 11 11 11 11 11 12 12 11 11 11 10 10 11 11 11 11
18 18 17 16 15 14 14 13 12 12 12 11 11 10 10 10 10 10 11 11 11 11 11 11 11 11 11 11 11 11 11 11 11 11 11 11 11 11 11 11 11 11 11
18 17 17 16 15 14 14 13 12 12 11 11 10 10 10 10 10 10 10 10 10 11 11 11 11 11 11 11 11 11 11 11 11 11 11 11 11 11 10 10 11 11 11
17 17 16 16 15 14 13 13 12 12 11 11 10 10 10 10 10 10 10 10 10 10 10 10 10 11 11 11 11 11 11 11 11 11 11 11 11 10 10 10 10 10 10
16 16 16 15 15 14 13 12 12 11 11 11 10 10 10 10 10 9 10 10 10 10 10 10 10 10 10 10 10 10 10 10 10 10 10 10 10 10 10 9 10 10 10
16 16 15 15 14 14 13 12 12 11 11 10 10 10 10 9 9 9 9 9 9 9 9 9 9 9 9 9 10 10 10 10 10 10 10 10 10 10 9 9 9 9 9
16 16 15 15 14 14 13 12 11 11 11 10 10 10 10 9 9 9 9 9 9 9 9 9 9 9 9 9 9 9 9 9 9 9 9 9 9 9 9 8 8 9 9
16 16 15 14 14 13 13 12 11 11 10 10 10 10 9 9 9 9 9 9 8 8 8 8 8 8 8 8 8 8 8 8 8 8 8 8 8 8 8 8 8 8 8
16 16 15 14 14 13 12 12 11 11 10 10 10 10 9 9 9 9 9 8 8 8 8 8 8 8 8 7 7 7 7 7 7 7 8 8 8 8 8 8 8 8 8
16 15 15 14 13 13 12 12 11 11 10 10 10 10 9 9 9 9 9 8 8 8 8 8 8 7 7 7 7 7 7 7 7 7 7 7 8 8 8 8 7 7 7
16 15 15 14 13 12 12 11 11 11 10 10 10 10 9 9 9 9 9 8 8 8 8 8 8 7 7 7 7 7 7 7 7 7 7 7 8 8 8 8 7 7 7
15 15 14 13 13 12 12 11 11 10 10 10 10 10 9 9 9 9 9 8 8 8 8 8 7 7 7 7 7 7 7 7 7 7 8 8 8 8 8 8 7 7 7
15 14 14 13 13 12 12 11 11 10 10 10 10 10 9 9 9 9 8 8 8 8 7 7 7 7 7 7 6 6 7 7 7 7 8 8 8 8 8 8 7 7 7
14 14 13 13 12 12 12 11 11 10 10 10 10 10 9 9 9 9 8 8 8 8 7 7 7 7 6 6 6 6 7 7 7 7 7 7 7 7 7 7 7 7 7
13 13 13 13 12 12 12 11 11 10 10 10 10 9 9 9 9 9 8 8 8 7 7 7 7 6 6 6 6 6 7 7 7 7 7 7 7 6 6 6 6 6 6
13 13 13 13 12 12 12 11 11 10 10 10 10 9 9 9 9 8 8 8 7 7 7 7 6 6 6 6 5 4 4 5 5 5 5 6 6 6 5 5 5 5 5
13 13 13 13 12 12 12 12 11 11 10 10 10 9 9 9 8 8 8 7 7 7 7 6 6 6 6 6 5 4 3 3 3 3 4 4 4 4 4 4 4 4 4
13 12 12 12 12 12 12 11 11 11 10 10 9 9 8 8 8 7 7 7 7 6 6 6 6 5 5 5 5 4 3 3 2 2 2 3 3 3 3 3 3 4 4
12 12 12 12 12 12 11 11 11 10 10 9 9 8 8 8 7 7 7 6 6 6 6 5 5 5 4 4 4 3 3 3 2 1 1 2 2 2 2 2 3 3 3
12 12 12 12 12 11 11 11 10 10 10 9 8 8 8 7 7 7 6 6 6 6 5 5 5 4 4 4 3 3 2 2 2 1 1 0 0 1 1 1 2 2 2
Wind_Speed
7 16 19 19 18 16 15 14 13 13 13 13 13 13 13 13 12 12 12 12 12 12 12 13 13 14 14 14 14 14 14 15 15 16 17 16 15 15 14 14 14 14 15
12 21 21 20 19 17 16 14 14 14 13 13 12 12 12 12 12 12 11 11 11 11 12 12 12 12 12 12 12 12 12 13 14 14 15 15 14 14 14 14 13 13 13
16 22 22 21 20 18 16 15 14 14 13 12 12 11 11 11 11 11 11 10 10 10 11 11 11 11 11 11 11 10 11 12 12 13 14 15 13 13 13 13 13 13 12
20 22 22 22 20 19 17 16 15 14 13 12 11 11 11 11 10 10 9 10 10 10 10 10 10 10 10 9 9 9 10 10 11 11 13 14 12 11 11 11 12 12 11
18 21 22 23 21 19 18 17 15 13 12 12 12 11 10 10 9 9 8 8 8 8 8 8 9 9 9 8 8 8 9 10 11 11 11 12 12 9 9 9 10 10 10
14 20 22 24 22 20 18 17 16 14 12 12 11 10 9 8 8 7 7 7 7 7 7 7 7 7 7 7 6 7 8 9 10 9 8 9 9 7 7 7 7 7 7
12 19 22 23 22 20 19 17 16 14 13 12 11 10 9 8 7 7 6 5 5 5 5 5 5 5 5 5 5 5 6 7 8 7 6 6 6 5 5 5 5 5 5
14 18 21 23 22 20 19 18 16 15 13 12 11 10 9 8 7 6 5 4 4 3 3 3 3 3 3 3 4 4 5 6 5 5 4 4 4 4 4 4 4 4 4
15 16 17 20 21 20 19 18 17 15 14 12 11 10 9 8 8 6 5 4 4 2 1 0 1 2 2 3 4 4 5 5 4 4 4 5 6 6 5 5 5 5 5
10 12 14 17 18 18 18 18 17 15 14 13 12 11 9 9 8 7 6 5 5 4 3 3 3 3 4 4 5 5 6 6 5 6 6 8 8 8 8 8 7 8 7
9 9 11 13 15 16 16 17 17 16 15 13 12 12 10 9 8 7 8 8 7 6 5 5 5 6 6 6 7 8 8 7 7 8 9 10 11 11 12 11 11 11 11
12 11 9 11 13 15 14 15 15 14 14 13 12 12 11 11 10 9 10 10 9 8 8 8 8 8 8 7 9 10 10 10 10 11 12 12 14 14 14 14 14 14 14
12 12 11 10 14 14 11 12 12 12 12 13 13 13 13 11 10 9 9 10 11 10 9 9 9 9 9 10 11 12 13 13 13 14 15 14 15 16 17 17 17 17 17
10 12 12 11 11 13 12 11 11 10 10 11 13 14 12 9 8 8 8 10 10 10 9 10 10 11 12 12 12 13 14 14 15 16 17 17 18 19 19 20 19 19 20
10 11 12 10 10 11 10 9 10 10 10 11 12 13 13 9 7 8 8 9 10 10 10 9 10 10 11 11 12 12 12 14 16 16 17 18 19 21 22 22 22 22 22
9 10 10 11 10 11 8 7 8 10 10 10 10 12 13 12 9 8 7 8 9 10 11 10 10 9 8 9 8 10 12 13 14 16 17 19 20 22 24 24 24 24 24
9 9 10 10 9 9 8 8 8 9 9 8 9 10 10 10 10 8 6 6 8 10 9 8 8 7 5 5 6 8 9 11 12 15 17 18 19 21 24 25 25 26 26
8 8 8 8 8 7 7 7 6 6 6 5 6 7 8 8 8 6 4 5 7 6 5 3 3 3 4 4 5 5 6 9 12 14 16 17 18 18 21 24 26 26 26
9 9 8 8 8 7 6 6 6 5 4 4 3 3 3 3 3 3 3 4 4 3 2 2 2 3 4 5 6 6 5 6 8 12 13 16 18 18 19 21 24 25 26
8 9 9 8 7 7 5 5 4 4 3 3 3 2 2 1 0 1 1 2 2 1 2 2 3 3 4 5 6 7 6 7 7 7 10 13 15 17 18 18 19 20 23
8 8 8 8 6 6 4 4 3 2 1 2 2 2 2 2 2 1 1 2 1 1 3 3 3 4 3 2 3 5 6 7 7 7 6 7 9 13 14 15 15 16 17
7 7 7 8 7 6 4 3 3 3 2 1 2 3 3 3 2 1 1 1 1 1 3 3 2 2 3 1 2 4 5 5 4 4 5 6 7 8 8 11 12 14 16
7 7 7 7 7 6 5 4 4 4 3 3 3 2 4 4 3 2 2 1 1 1 2 3 3 3 4 3 2 3 4 5 5 5 5 6 6 5 5 10 12 15 18
6 6 7 7 7 6 6 6 5 4 2 1 1 2 3 4 4 3 2 2 2 1 3 4 3 3 3 4 3 4 6 5 5 6 4 5 7 7 8 8 10 15 18
6 7 7 7 6 6 6 7 6 4 2 1 1 2 3 4 5 4 3 3 2 2 3 4 4 4 3 4 4 4 5 5 7 7 10 7 5 6 7 8 8 12 17
6 6 6 7 6 5 6 6 6 6 4 3 2 2 3 3 3 5 4 4 4 4 4 5 5 6 5 6 6 5 5 5 6 7 10 11 10 7 8 7 8 9 16
Wind_Direction
190 181 171 161 157 152 146 138 131 126 118 113 108 103 100 96 92 89 85 80 75 71 67 65 63 62 62 64 64 62 59 55 55 52 51 57 61 62 61 60 53 47 48
164 173 170 164 160 156 150 143 137 131 124 116 112 108 104 100 96 91 87 83 79 74 71 68 66 64 62 64 65 65 61 57 62 55 47 40 51 60 59 59 59 55 53
154 168 168 165 162 158 153 146 141 135 129 123 119 114 110 105 100 94 89 86 81 77 74 71 69 67 65 65 66 67 60 55 61 56 45 29 32 55 56 55 56 56 54
157 165 166 166 164 161 157 152 147 141 135 131 127 122 117 111 105 99 93 88 84 80 76 73 71 68 67 67 67 66 57 53 61 58 44 29 22 49 52 50 51 52 51
158 163 166 167 166 164 160 157 153 149 145 138 134 129 123 117 110 105 99 93 87 83 79 75 71 70 67 66 66 62 55 58 60 58 48 32 18 41 49 47 45 45 45
156 162 168 169 169 167 164 162 158 156 153 146 140 137 132 126 119 113 107 101 95 87 82 77 72 67 65 63 61 56 50 52 52 52 46 31 12 29 42 41 39 38 37
157 164 170 171 171 169 168 165 163 162 161 157 152 147 143 138 131 127 122 115 106 96 86 78 71 66 59 55 51 42 37 41 44 44 33 18 1 15 25 27 24 22 24
160 165 172 173 173 172 171 170 168 167 167 165 163 160 156 151 147 148 144 139 130 114 95 77 62 52 44 34 27 17 14 19 26 21 0 342 337 344 353 357 352 351 354
161 164 171 175 175 176 175 175 174 174 173 173 173 171 168 167 167 168 169 171 172 171 164 132 2 354 351 348 345 342 341 348 358 337 315 301 301 306 311 310 310 312 313
158 164 168 171 174 176 177 178 179 179 180 180 180 177 177 181 186 187 187 196 205 215 229 248 272 289 299 306 309 312 316 318 315 308 296 287 286 289 293 292 289 289 289
163 168 168 168 172 174 176 181 181 183 185 186 187 185 184 188 195 203 201 214 224 231 243 257 269 279 284 285 290 292 294 290 288 287 283 280 283 285 287 287 285 284 282
175 178 174 170 170 172 178 182 183 186 189 190 190 189 190 195 203 210 212 222 231 239 250 263 272 278 282 277 278 283 280 272 270 272 274 275 281 285 286 285 283 281 280
178 177 179 175 172 173 175 176 180 185 188 192 195 196 198 202 210 215 218 226 233 240 247 260 273 276 271 267 268 270 268 264 261 262 265 271 278 284 286 285 283 281 279
174 180 178 175 173 176 175 177 180 183 188 194 201 203 200 200 207 212 214 219 225 233 240 250 256 261 263 264 263 263 261 257 257 259 263 267 275 281 285 285 284 282 280
174 176 176 175 173 173 173 179 183 189 194 200 204 207 206 202 205 210 215 217 225 232 236 241 246 250 253 257 259 256 255 255 256 258 261 267 273 279 282 283 283 282 281
168 166 166 170 169 166 167 170 179 188 196 201 207 212 210 209 209 209 218 222 229 234 237 237 239 241 247 252 257 257 256 258 260 261 263 267 273 278 281 283 283 283 282
157 152 156 161 157 157 159 167 172 181 186 194 209 214 211 210 211 211 216 225 236 242 244 246 250 250 255 257 261 266 267 267 268 269 270 269 270 275 278 281 283 284 283
134 135 144 149 146 150 152 156 158 164 172 190 204 207 213 214 215 214 220 235 247 252 251 251 253 261 265 268 272 273 273 274 273 272 273 271 270 271 274 279 281 283 284
126 125 123 127 135 137 132 129 123 122 127 142 154 162 186 200 207 207 226 248 260 260 264 266 267 259 274 278 277 274 268 265 268 272 271 272 271 270 270 276 281 282 284
109 111 112 113 119 117 105 97 89 83 83 89 96 102 100 87 170 211 249 271 279 277 289 290 284 278 268 275 288 285 275 267 264 263 269 275 276 275 275 275 278 281 285
101 106 111 114 117 117 108 109 107 100 71 52 48 47 35 9 343 310 286 298 303 284 281 286 286 291 289 291 305 300 284 271 269 265 267 273 279 282 283 281 280 279 282
118 115 116 119 120 119 119 122 123 121 103 77 20 17 5 353 342 322 276 288 304 299 307 304 294 293 288 284 277 311 316 318 315 277 271 268 268 281 286 289 290 286 283
131 135 130 126 120 116 115 104 83 66 48 29 10 349 342 346 341 332 307 283 290 264 285 288 277 262 281 289 212 237 290 289 305 275 266 265 275 282 281 288 288 288 286
150 139 130 126 120 118 117 117 123 125 132 193 296 334 345 1 353 341 325 307 297 286 283 282 271 252 252 278 275 231 233 254 281 299 282 278 275 271 270 276 279 281 282
150 142 135 125 119 120 117 123 123 122 134 115 49 24 3 354 356 349 337 329 315 297 283 285 287 272 249 255 260 260 259 256 240 265 288 284 278 260 260 263 267 273 275
148 142 139 131 126 125 122 124 130 133 130 108 63 21 354 342 342 346 340 330 314 301 290 286 281 279 269 264 262 255 254 259 263 260 278 288 286 275 259 256 259 263 268
Height
1549 1550 1552 1553 1555 1556 1556 1557 1558 1558 1558 1558 1558 1558 1557 1557 1556 1556 1555 1555 1555 1555 1555 1555 1554 1554 1553 1553 1553 1552 1552 1551 1551 1550 1550 1550 1550 1549 1548 1548 1548 1548 1548
1548 1549 1551 1553 1554 1556 1556 1557 1558 1558 1559 1559 1559 1558 1558 1558 1557 1557 1556 1556 1556 1556 1555 1555 1554 1554 1554 1553 1553 1553 1552 1552 1551 1551 1551 1550 1550 1550 1549 1549 1548 1548 1548
1548 1549 1551 1552 1554 1555 1556 1557 1558 1559 1559 1559 1559 1559 1559 1558 1558 1558 1557 1557 1556 1556 1556 1555 1555 1554 1554 1553 1553 1553 1553 1552 1551 1551 1551 1551 1551 1550 1550 1549 1549 1548 1548
1547 1548 1550 1552 1554 1555 1556 1557 1558 1559 1559 1559 1559 1559 1559 1559 1559 1559 1558 1558 1557 1557 1556 1556 1555 1555 1554 1554 1554 1554 1553 1552 1552 1552 1552 1552 1551 1551 1551 1550 1549 1549 1548
1547 1548 1550 1551 1553 1555 1556 1557 1558 1559 1559 1559 1560 1560 1560 1560 1559 1559 1559 1558 1558 1557 1557 1557 1556 1556 1555 1555 1554 1554 1554 1553 1553 1553 1553 1553 1552 1552 1551 1550 1550 1549 1549
1547 1548 1550 1551 1552 1554 1556 1557 1558 1558 1559 1560 1560 1560 1560 1560 1560 1560 1559 1559 1559 1558 1558 1557 1557 1556 1556 1556 1555 1555 1554 1554 1554 1554 1553 1553 1553 1552 1551 1551 1550 1549 1549
1547 1548 1549 1551 1552 1554 1555 1556 1557 1558 1559 1560 1560 1560 1560 1560 1560 1560 1560 1559 1559 1559 1558 1558 1558 1557 1557 1557 1556 1556 1555 1555 1555 1554 1554 1554 1553 1553 1552 1551 1550 1550 1549
1547 1547 1549 1550 1552 1553 1554 1556 1557 1558 1559 1560 1560 1561 1561 1561 1560 1560 1560 1560 1560 1559 1559 1559 1558 1558 1558 1557 1557 1556 1556 1556 1555 1555 1555 1554 1553 1553 1552 1551 1551 1550 1549
1546 1547 1548 1549 1551 1552 1554 1555 1557 1558 1558 1559 1560 1560 1561 1561 1561 1560 1560 1560 1560 1560 1559 1559 1559 1558 1558 1557 1557 1557 1556 1556 1555 1555 1555 1554 1553 1553 1552 1551 1550 1550 1549
1545 1547 1548 1549 1550 1551 1553 1555 1556 1557 1558 1559 1559 1560 1560 1560 1561 1561 1560 1560 1560 1560 1559 1559 1559 1558 1558 1557 1557 1557 1556 1556 1555 1555 1554 1554 1553 1552 1551 1551 1550 1549 1548
1544 1545 1546 1548 1549 1551 1552 1554 1555 1557 1558 1558 1559 1559 1560 1560 1560 1560 1560 1560 1560 1559 1559 1559 1558 1558 1557 1557 1557 1556 1556 1555 1555 1554 1553 1553 1552 1551 1550 1550 1549 1548 1547
1541 1543 1545 1546 1548 1550 1551 1553 1554 1556 1557 1557 1558 1559 1559 1559 1559 1559 1559 1559 1559 1559 1558 1558 1558 1557 1556 1556 1556 1555 1554 1554 1553 1553 1552 1551 1550 1549 1549 1548 1547 1547 1546
1539 1541 1543 1545 1547 1548 1550 1551 1553 1554 1555 1556 1557 1558 1558 1558 1558 1558 1558 1558 1558 1558 1557 1557 1556 1556 1555 1554 1554 1553 1552 1552 1551 1550 1550 1549 1548 1547 1546 1546 1545 1544 1543
1537 1539 1541 1543 1545 1547 1549 1550 1552 1553 1554 1555 1556 1556 1557 1557 1557 1557 1557 1557 1556 1556 1556 1555 1555 1554 1553 1552 1551 1550 1550 1549 1548 1547 1546 1546 1545 1544 1543 1542 1542 1541 1540
1535 1537 1539 1541 1543 1545 1547 1549 1550 1551 1553 1554 1554 1555 1555 1555 1555 1555 1555 1555 1555 1554 1554 1553 1552 1551 1550 1550 1549 1547 1546 1545 1544 1543 1542 1542 1541 1540 1539 1538 1537 1536 1536
1533 1535 1537 1540 1542 1544 1545 1547 1549 1550 1551 1552 1553 1553 1554 1554 1554 1554 1553 1553 1553 1552 1551 1550 1549 1548 1548 1547 1545 1544 1543 1542 1540 1539 1538 1537 1536 1535 1534 1533 1532 1531 1530
1531 1533 1536 1538 1540 1542 1544 1546 1548 1549 1550 1551 1551 1552 1552 1552 1552 1551 1551 1551 1550 1550 1549 1548 1547 1545 1544 1543 1542 1541 1539 1538 1536 1534 1533 1532 1531 1530 1528 1527 1526 1525 1524
1529 1532 1535 1537 1539 1541 1543 1545 1546 1547 1548 1549 1549 1550 1550 1550 1549 1549 1548 1548 1547 1546 1545 1544 1543 1542 1540 1539 1537 1536 1534 1532 1531 1529 1528 1526 1525 1524 1522 1521 1520 1519 1518
1528 1531 1533 1535 1537 1540 1542 1543 1544 1545 1546 1547 1547 1547 1547 1547 1547 1546 1545 1545 1544 1543 1542 1540 1539 1538 1536 1534 1532 1530 1528 1527 1525 1524 1522 1521 1519 1518 1517 1516 1514 1513 1512
1528 1530 1532 1534 1536 1538 1540 1541 1543 1544 1544 1545 1545 1545 1545 1544 1543 1543 1542 1541 1540 1539 1538 1536 1535 1533 1531 1529 1526 1524 1522 1520 1519 1518 1517 1516 1515 1513 1512 1511 1509 1508 1507
1527 1529 1531 1533 1535 1536 1538 1539 1541 1542 1542 1543 1543 1542 1542 1541 1540 1540 1539 1538 1537 1535 1534 1532 1531 1529 1527 1525 1522 1518 1515 1514 1512 1512 1511 1510 1509 1508 1507 1505 1504 1502 1501
1526 1528 1530 1532 1534 1535 1537 1538 1539 1540 1540 1540 1540 1540 1539 1538 1537 1537 1536 1534 1533 1532 1530 1529 1527 1525 1523 1522 1519 1514 1509 1506 1505 1505 1505 1504 1503 1502 1501 1500 1498 1497 1495
1526 1528 1529 1531 1533 1535 1536 1537 1538 1538 1539 1538 1538 1538 1537 1536 1535 1534 1533 1532 1530 1529 1527 1526 1524 1522 1519 1518 1517 1515 1510 1504 1500 1496 1496 1496 1496 1495 1495 1493 1491 1490 1488
1525 1527 1529 1531 1533 1534 1535 1536 1536 1537 1537 1537 1536 1535 1535 1534 1532 1531 1530 1529 1527 1526 1524 1522 1520 1518 1516 1513 1512 1511 1509 1505 1500 1491 1489 1490 1489 1487 1486 1485 1483 1481 1480
1525 1527 1529 1530 1532 1533 1534 1535 1535 1535 1535 1535 1534 1533 1532 1531 1530 1529 1527 1526 1524 1522 1520 1518 1516 1514 1512 1509 1507 1505 1502 1500 1497 1491 1482 1479 1479 1478 1478 1476 1474 1473 1471
1524 1526 1528 1529 1531 1532 1533 1533 1534 1533 1533 1532 1532 1531 1530 1529 1527 1526 1524 1523 1521 1519 1516 1514 1512 1509 1507 1504 1502 1499 1497 1494 1490 1486 1479 1473 1469 1468 1468 1467 1465 1464 1462